When you browse on this site, cookies collect data to enhance your experience and personalize the content and advertising you see.
Visit our Privacy Policy to learn more. By continuing to use the site, you agree to this use of cookies and data.

Previsão horária em Abay

Hoje, 29 Setembro, Terça-feira

Tempo Temperatura Precipitação Vento Pressão Humidade
00:00 +1°C° 0.2 mm 0 m/s 673 mmHg 94%
01:00 0°C° 0.1 mm 0 m/s 673 mmHg 94%
02:00 0°C° 0.1 mm 0 m/s 672 mmHg 95%
03:00 -1°C° 0.1 mm 0 m/s 672 mmHg 95%
04:00 -1°C° 0 mm 0 m/s 672 mmHg 95%
05:00 -1°C° 0 mm 0 m/s 672 mmHg 95%
06:00 -2°C° 0 mm 0 m/s 672 mmHg 95%
07:00 0°C° 0 mm 0 m/s 672 mmHg 90%
08:00 +2°C° 0 mm 0 m/s 673 mmHg 84%
09:00 +4°C° 0 mm 0 m/s 673 mmHg 79%
10:00 +6°C° 0 mm 1 m/s 673 mmHg 72%
11:00 +7°C° 0 mm 1 m/s 673 mmHg 66%
12:00 +7°C° 0 mm 2 m/s 673 mmHg 60%
13:00 +7°C° 0 mm 2 m/s 673 mmHg 60%
14:00 +7°C° 0 mm 3 m/s 673 mmHg 60%
15:00 +5°C° 0 mm 3 m/s 672 mmHg 60%
16:00 +4°C° 0 mm 3 m/s 672 mmHg 68%
17:00 +4°C° 0 mm 2 m/s 672 mmHg 76%
18:00 +3°C° 0 mm 2 m/s 672 mmHg 85%
19:00 +3°C° 0.4 mm 1 m/s 673 mmHg 88%
20:00 +3°C° 0.4 mm 1 m/s 673 mmHg 92%
21:00 +3°C° 0.4 mm 1 m/s 673 mmHg 96%
22:00 +2°C° 0.5 mm 1 m/s 673 mmHg 96%
23:00 +2°C° 0.5 mm 1 m/s 673 mmHg 96%

Amanhã, 30 Setembro, Quarta-feira

Tempo Temperatura Precipitação Vento Pressão Humidade
00:00 +2°C° 0.5 mm 1 m/s 673 mmHg 96%
01:00 +1°C° 0.2 mm 1 m/s 673 mmHg 96%
02:00 +1°C° 0.2 mm 1 m/s 673 mmHg 96%
03:00 0°C° 0.2 mm 1 m/s 673 mmHg 96%
04:00 -1°C° 0.1 mm 1 m/s 673 mmHg 97%
05:00 -1°C° 0.1 mm 1 m/s 674 mmHg 97%
06:00 -4°C° 0.1 mm 2 m/s 674 mmHg 97%
07:00 -3°C° 0 mm 2 m/s 674 mmHg 91%
08:00 -2°C° 0 mm 2 m/s 674 mmHg 86%
09:00 -1°C° 0 mm 2 m/s 675 mmHg 80%
10:00 +1°C° 0 mm 2 m/s 675 mmHg 72%
11:00 +2°C° 0 mm 2 m/s 675 mmHg 65%
12:00 +3°C° 0 mm 2 m/s 675 mmHg 57%
13:00 +3°C° 0 mm 2 m/s 675 mmHg 55%
14:00 +4°C° 0 mm 2 m/s 675 mmHg 53%
15:00 +5°C° 0 mm 1 m/s 675 mmHg 51%
16:00 +4°C° 0 mm 1 m/s 674 mmHg 58%
17:00 +2°C° 0 mm 1 m/s 674 mmHg 65%
18:00 0°C° 0 mm 1 m/s 674 mmHg 72%
19:00 -1°C° 0 mm 1 m/s 674 mmHg 75%
20:00 -1°C° 0 mm 1 m/s 674 mmHg 78%
21:00 -3°C° 0 mm 0 m/s 674 mmHg 81%
22:00 -3°C° 0 mm 0 m/s 673 mmHg 81%
23:00 -3°C° 0 mm 0 m/s 673 mmHg 82%

Depois de amanhã, 1 Outubro, Quinta-feira

Tempo Temperatura Precipitação Vento Pressão Humidade
00:00 -3°C° 0 mm 0 m/s 673 mmHg 83%
01:00 -3°C° 0 mm 0 m/s 673 mmHg 83%
02:00 -4°C° 0 mm 0 m/s 673 mmHg 83%
03:00 -4°C° 0 mm 0 m/s 673 mmHg 83%
04:00 -4°C° 0 mm 0 m/s 673 mmHg 82%
05:00 -4°C° 0 mm 0 m/s 673 mmHg 82%
06:00 -4°C° 0 mm 0 m/s 673 mmHg 82%
07:00 -2°C° 0 mm 0 m/s 673 mmHg 74%
08:00 0°C° 0 mm 0 m/s 674 mmHg 66%
09:00 +2°C° 0 mm 0 m/s 674 mmHg 58%
10:00 +4°C° 0 mm 0 m/s 674 mmHg 53%
11:00 +5°C° 0 mm 0 m/s 674 mmHg 48%
12:00 +8°C° 0 mm 1 m/s 674 mmHg 43%
13:00 +8°C° 0 mm 1 m/s 674 mmHg 44%
14:00 +8°C° 0 mm 1 m/s 674 mmHg 44%
15:00 +8°C° 0 mm 1 m/s 674 mmHg 45%
16:00 +6°C° 0 mm 1 m/s 674 mmHg 54%
17:00 +4°C° 0 mm 1 m/s 674 mmHg 63%
18:00 +2°C° 0 mm 1 m/s 674 mmHg 72%
19:00 +1°C° 0 mm 1 m/s 674 mmHg 76%
20:00 +1°C° 0 mm 1 m/s 674 mmHg 80%
21:00 0°C° 0 mm 1 m/s 674 mmHg 84%
22:00 -1°C° 0 mm 1 m/s 674 mmHg 86%
23:00 -1°C° 0 mm 1 m/s 674 mmHg 88%

2 Outubro, Sexta-feira

Tempo Temperatura Precipitação Vento Pressão Humidade
00:00 -2°C° 0 mm 0 m/s 674 mmHg 90%
01:00 -2°C° 0 mm 0 m/s 673 mmHg 90%
02:00 -2°C° 0 mm 0 m/s 673 mmHg 90%
03:00 -2°C° 0 mm 0 m/s 673 mmHg 90%
04:00 -2°C° 0 mm 0 m/s 673 mmHg 89%
05:00 -3°C° 0 mm 0 m/s 673 mmHg 89%
06:00 -3°C° 0 mm 0 m/s 673 mmHg 89%
07:00 -1°C° 0 mm 0 m/s 673 mmHg 80%
08:00 +1°C° 0 mm 0 m/s 673 mmHg 71%
09:00 +3°C° 0 mm 0 m/s 673 mmHg 63%
10:00 +5°C° 0 mm 0 m/s 673 mmHg 58%
11:00 +7°C° 0 mm 0 m/s 673 mmHg 52%
12:00 +9°C° 0 mm 0 m/s 673 mmHg 47%
13:00 +9°C° 0 mm 0 m/s 673 mmHg 46%
14:00 +10°C° 0 mm 0 m/s 673 mmHg 46%
15:00 +10°C° 0 mm 0 m/s 673 mmHg 45%
16:00 +8°C° 0 mm 0 m/s 672 mmHg 55%
17:00 +5°C° 0 mm 0 m/s 672 mmHg 64%
18:00 +3°C° 0 mm 0 m/s 671 mmHg 74%
19:00 +2°C° 0 mm 0 m/s 671 mmHg 75%
20:00 +1°C° 0 mm 0 m/s 671 mmHg 77%
21:00 +1°C° 0 mm 0 m/s 671 mmHg 78%
22:00 +1°C° 0 mm 0 m/s 671 mmHg 79%
23:00 0°C° 0 mm 0 m/s 671 mmHg 80%

3 Outubro, Sábado

Tempo Temperatura Precipitação Vento Pressão Humidade
00:00 0°C° 0 mm 0 m/s 671 mmHg 81%
01:00 0°C° 0 mm 0 m/s 671 mmHg 81%
02:00 0°C° 0 mm 0 m/s 671 mmHg 82%
03:00 0°C° 0 mm 0 m/s 671 mmHg 83%
04:00 0°C° 0 mm 0 m/s 671 mmHg 83%
05:00 0°C° 0 mm 0 m/s 671 mmHg 83%
06:00 0°C° 0 mm 0 m/s 671 mmHg 83%
07:00 +3°C° 0 mm 1 m/s 671 mmHg 76%
08:00 +5°C° 0 mm 1 m/s 671 mmHg 68%
09:00 +7°C° 0 mm 1 m/s 672 mmHg 60%
10:00 +8°C° 0 mm 1 m/s 672 mmHg 55%
11:00 +10°C° 0 mm 1 m/s 671 mmHg 49%
12:00 +12°C° 0 mm 1 m/s 671 mmHg 43%
13:00 +12°C° 0 mm 1 m/s 671 mmHg 44%
14:00 +12°C° 0 mm 1 m/s 671 mmHg 44%
15:00 +12°C° 0 mm 1 m/s 671 mmHg 44%
16:00 +9°C° 0 mm 1 m/s 671 mmHg 53%
17:00 +7°C° 0 mm 1 m/s 670 mmHg 63%
18:00 +4°C° 0 mm 1 m/s 670 mmHg 72%
19:00 +4°C° 0 mm 1 m/s 670 mmHg 73%
20:00 +3°C° 0 mm 1 m/s 670 mmHg 74%
21:00 +2°C° 0 mm 1 m/s 670 mmHg 75%
22:00 +2°C° 0 mm 1 m/s 670 mmHg 75%
23:00 +2°C° 0 mm 1 m/s 670 mmHg 76%

4 Outubro, Domingo

Tempo Temperatura Precipitação Vento Pressão Humidade
00:00 +2°C° 0 mm 1 m/s 670 mmHg 76%
01:00 +2°C° 0 mm 1 m/s 670 mmHg 76%
02:00 +2°C° 0 mm 1 m/s 670 mmHg 77%
03:00 +1°C° 0 mm 1 m/s 670 mmHg 77%
04:00 +1°C° 0 mm 1 m/s 670 mmHg 77%
05:00 +1°C° 0 mm 1 m/s 670 mmHg 78%
06:00 +2°C° 0 mm 1 m/s 670 mmHg 78%
07:00 +3°C° 0 mm 1 m/s 670 mmHg 72%
08:00 +5°C° 0 mm 1 m/s 671 mmHg 65%
09:00 +6°C° 0 mm 2 m/s 671 mmHg 59%
10:00 +7°C° 0 mm 2 m/s 671 mmHg 55%
11:00 +9°C° 0 mm 3 m/s 671 mmHg 51%
12:00 +10°C° 0 mm 4 m/s 671 mmHg 48%
13:00 +10°C° 0 mm 4 m/s 671 mmHg 49%
14:00 +10°C° 0 mm 4 m/s 670 mmHg 50%
15:00 +10°C° 0 mm 4 m/s 670 mmHg 51%
16:00 +8°C° 0 mm 3 m/s 670 mmHg 58%
17:00 +6°C° 0 mm 2 m/s 670 mmHg 65%
18:00 +5°C° 0 mm 2 m/s 670 mmHg 71%
19:00 +4°C° 0 mm 2 m/s 670 mmHg 73%
20:00 +5°C° 0 mm 1 m/s 670 mmHg 76%
21:00 +4°C° 0 mm 1 m/s 670 mmHg 78%
22:00 +4°C° 0 mm 1 m/s 670 mmHg 82%
23:00 +4°C° 0 mm 1 m/s 671 mmHg 86%
Mostrar mais